Time,TemperatureF,DewpointF,PressureIn,WindDirection,WindDirectionDegrees,WindSpeedMPH,WindSpeedGustMPH,Humidity,HourlyPrecipIn,Conditions,Clouds,dailyrainin,SoftwareType,DateUTC
2013-03-01 00:00:00,31.1,26.5,29.82,WNW,288,5.0,5.0,83,0.00,RA,,0.00,WeatherDisplay:10.37,2013-03-01 05:00:00,
2013-03-01 00:05:00,31.1,26.5,29.82,West,281,7.0,7.0,83,0.00,RA,,0.00,WeatherDisplay:10.37,2013-03-01 05:05:00,
2013-03-01 00:06:00,31.1,26.5,29.82,West,281,7.0,7.0,83,0.00,RA,,0.00,WeatherDisplay:10.37,2013-03-01 05:06:00,
2013-03-01 00:10:00,30.4,22.1,29.92,NNW,338,0.0,0.0,71,0.00,CLR,CLR,0.01,WeatherDisplay:10.37,2013-03-01 05:10:00,
2013-03-01 00:11:00,31.1,26.5,29.82,NW,319,5.0,5.0,83,0.00,CLR,,0.00,WeatherDisplay:10.37,2013-03-01 05:11:00,
2013-03-01 00:15:00,30.1,22.2,29.93,NNW,338,0.0,0.0,72,0.01,RA,RA,0.02,WeatherDisplay:10.37,2013-03-01 05:15:00,
2013-03-01 00:16:00,31.0,26.4,29.82,NNW,345,4.0,4.0,83,0.00,CLR,,0.00,WeatherDisplay:10.37,2013-03-01 05:16:00,
2013-03-01 00:20:00,29.5,22.2,29.93,NNW,338,0.0,0.0,74,0.01,RA,RA,0.02,WeatherDisplay:10.37,2013-03-01 05:20:00,
2013-03-01 00:21:00,30.9,26.3,29.82,NW,320,3.5,3.5,83,0.00,CLR,,0.00,WeatherDisplay:10.37,2013-03-01 05:21:00,
2013-03-01 00:25:00,29.4,22.1,29.92,NNW,338,0.0,0.0,74,0.00,CLR,CLR,0.02,WeatherDisplay:10.37,2013-03-01 05:25:00,
2013-03-01 00:26:00,30.9,26.3,29.83,NW,312,2.3,2.3,83,0.00,CLR,,0.00,WeatherDisplay:10.37,2013-03-01 05:26:00,
2013-03-01 00:30:00,29.5,21.9,29.92,NNW,338,0.0,0.0,73,0.00,CLR,CLR,0.02,WeatherDisplay:10.37,2013-03-01 05:30:00,
2013-03-01 00:31:00,30.8,26.2,29.83,NW,325,3.5,3.5,83,0.00,CLR,,0.00,WeatherDisplay:10.37,2013-03-01 05:31:00,
2013-03-01 00:35:00,29.6,22.0,29.92,NNW,338,0.0,0.0,73,0.00,CLR,CLR,0.02,WeatherDisplay:10.37,2013-03-01 05:35:00,
2013-03-01 00:36:00,30.7,26.1,29.83,NW,311,2.3,2.3,83,0.00,CLR,,0.00,WeatherDisplay:10.37,2013-03-01 05:36:00,
2013-03-01 00:40:00,30.0,22.4,29.92,NNW,338,0.0,0.0,73,0.00,CLR,CLR,0.02,WeatherDisplay:10.37,2013-03-01 05:40:00,
2013-03-01 00:41:00,30.7,26.1,29.83,NNW,334,3.0,3.0,83,0.00,CLR,,0.00,WeatherDisplay:10.37,2013-03-01 05:41:00,
2013-03-01 00:45:00,30.2,22.6,29.92,NNW,338,0.0,0.0,73,0.00,CLR,CLR,0.02,WeatherDisplay:10.37,2013-03-01 05:45:00,
2013-03-01 00:46:00,30.7,26.1,29.83,WNW,294,5.0,5.0,83,0.00,CLR,,0.00,WeatherDisplay:10.37,2013-03-01 05:46:00,
2013-03-01 00:50:00,30.3,22.4,29.92,NNW,338,0.0,0.0,72,0.00,CLR,CLR,0.02,WeatherDisplay:10.37,2013-03-01 05:50:00,
2013-03-01 00:51:00,30.7,26.1,29.84,NW,323,4.0,4.0,83,0.00,CLR,,0.00,WeatherDisplay:10.37,2013-03-01 05:51:00,
2013-03-01 00:55:00,30.1,22.2,29.92,NNW,338,0.0,0.0,72,0.00,CLR,CLR,0.02,WeatherDisplay:10.37,2013-03-01 05:55:00,
2013-03-01 00:56:00,30.6,26.1,29.84,NW,325,3.5,3.5,83,0.00,CLR,,0.00,WeatherDisplay:10.37,2013-03-01 05:56:00,
2013-03-01 01:00:00,30.0,22.1,29.92,NNW,338,0.0,0.0,72,0.00,CLR,CLR,0.02,WeatherDisplay:10.37,2013-03-01 06:00:00,
2013-03-01 01:01:00,30.6,25.8,29.84,NW,323,3.5,3.5,82,0.00,CLR,,0.00,WeatherDisplay:10.37,2013-03-01 06:01:00,
2013-03-01 01:05:00,29.9,22.0,29.92,NNW,338,0.0,0.0,72,0.00,CLR,CLR,0.02,WeatherDisplay:10.37,2013-03-01 06:05:00,
2013-03-01 01:06:00,30.7,25.9,29.84,NNW,334,4.0,4.0,82,0.00,CLR,,0.00,WeatherDisplay:10.37,2013-03-01 06:06:00,
2013-03-01 01:10:00,30.3,23.0,29.92,NNW,338,0.0,0.0,74,0.00,CLR,CLR,0.02,WeatherDisplay:10.37,2013-03-01 06:10:00,
2013-03-01 01:11:00,30.7,25.9,29.84,NNW,331,2.0,2.0,82,0.00,CLR,,0.00,WeatherDisplay:10.37,2013-03-01 06:11:00,
2013-03-01 01:15:00,30.5,22.9,29.92,NNW,338,0.0,0.0,73,0.00,CLR,CLR,0.02,WeatherDisplay:10.37,2013-03-01 06:15:00,
2013-03-01 01:16:00,30.7,25.9,29.84,NW,323,2.3,2.3,82,0.00,CLR,,0.00,WeatherDisplay:10.37,2013-03-01 06:16:00,
2013-03-01 01:20:00,30.1,22.5,29.92,NNW,338,0.0,0.0,73,0.00,CLR,CLR,0.02,WeatherDisplay:10.37,2013-03-01 06:20:00,
2013-03-01 01:21:00,30.7,25.9,29.84,NNW,342,5.0,5.0,82,0.00,CLR,,0.00,WeatherDisplay:10.37,2013-03-01 06:21:00,
2013-03-01 01:25:00,29.9,22.6,29.92,NNW,338,0.0,0.0,74,0.00,CLR,CLR,0.02,WeatherDisplay:10.37,2013-03-01 06:25:00,
2013-03-01 01:26:00,30.7,25.9,29.84,NW,313,4.6,4.6,82,0.00,CLR,,0.00,WeatherDisplay:10.37,2013-03-01 06:26:00,
2013-03-01 01:30:00,29.6,22.3,29.92,NNW,338,0.0,0.0,74,0.00,CLR,CLR,0.02,WeatherDisplay:10.37,2013-03-01 06:30:00,
2013-03-01 01:31:00,30.7,25.6,29.84,NNW,329,3.5,3.5,81,0.00,CLR,,0.00,WeatherDisplay:10.37,2013-03-01 06:31:00,
2013-03-01 01:35:00,29.4,22.1,29.92,NNW,338,0.0,0.0,74,0.00,CLR,CLR,0.02,WeatherDisplay:10.37,2013-03-01 06:35:00,
2013-03-01 01:36:00,30.6,25.5,29.84,WNW,294,4.0,4.0,81,0.00,CLR,,0.00,WeatherDisplay:10.37,2013-03-01 06:36:00,
2013-03-01 01:40:00,29.4,22.1,29.91,NNW,338,0.0,0.0,74,0.00,CLR,CLR,0.02,WeatherDisplay:10.37,2013-03-01 06:40:00,
2013-03-01 01:41:00,30.6,25.5,29.84,NW,315,3.0,3.0,81,0.00,CLR,,0.00,WeatherDisplay:10.37,2013-03-01 06:41:00,
2013-03-01 01:45:00,29.5,22.2,29.91,NNW,338,0.0,0.0,74,0.00,CLR,CLR,0.02,WeatherDisplay:10.37,2013-03-01 06:45:00,
2013-03-01 01:46:00,30.6,25.5,29.84,NNW,339,3.5,3.5,81,0.00,CLR,,0.00,WeatherDisplay:10.37,2013-03-01 06:46:00,
2013-03-01 01:50:00,29.9,22.9,29.91,NNW,338,0.0,0.0,75,0.00,CLR,CLR,0.02,WeatherDisplay:10.37,2013-03-01 06:50:00,
2013-03-01 01:51:00,30.6,25.5,29.84,NNW,333,6.0,6.0,81,0.00,CLR,,0.00,WeatherDisplay:10.37,2013-03-01 06:51:00,
2013-03-01 01:55:00,30.0,23.0,29.91,NNW,338,0.0,0.0,75,0.00,CLR,CLR,0.02,WeatherDisplay:10.37,2013-03-01 06:55:00,
2013-03-01 01:56:00,30.6,25.2,29.84,NNW,332,4.0,4.0,80,0.00,CLR,,0.00,WeatherDisplay:10.37,2013-03-01 06:56:00,
2013-03-01 02:00:00,29.7,22.4,29.91,NNW,338,0.0,0.0,74,0.00,CLR,CLR,0.02,WeatherDisplay:10.37,2013-03-01 07:00:00,
2013-03-01 02:01:00,30.6,25.2,29.84,NW,313,3.5,3.5,80,0.00,CLR,,0.00,WeatherDisplay:10.37,2013-03-01 07:01:00,
2013-03-01 02:05:00,29.3,22.4,29.91,NNW,338,0.0,0.0,75,0.00,CLR,CLR,0.02,WeatherDisplay:10.37,2013-03-01 07:05:00,
2013-03-01 02:06:00,30.5,25.1,29.84,NNW,345,5.0,5.0,80,0.00,CLR,,0.00,WeatherDisplay:10.37,2013-03-01 07:06:00,
2013-03-01 02:10:00,29.1,22.2,29.92,NNW,338,0.0,0.0,75,0.00,CLR,CLR,0.02,WeatherDisplay:10.37,2013-03-01 07:10:00,
2013-03-01 02:11:00,30.5,25.1,29.84,NNW,348,4.6,4.6,80,0.00,CLR,,0.00,WeatherDisplay:10.37,2013-03-01 07:11:00,
2013-03-01 02:15:00,29.0,21.7,29.91,NNW,338,0.0,0.0,74,0.00,CLR,CLR,0.02,WeatherDisplay:10.37,2013-03-01 07:15:00,
2013-03-01 02:16:00,30.5,24.8,29.85,North,349,4.0,4.0,79,0.00,CLR,,0.00,WeatherDisplay:10.37,2013-03-01 07:16:00,
2013-03-01 02:20:00,29.1,21.8,29.91,NNW,338,0.0,0.0,74,0.00,CLR,CLR,0.02,WeatherDisplay:10.37,2013-03-01 07:20:00,
2013-03-01 02:21:00,30.5,24.8,29.85,NNW,340,4.0,4.0,79,0.00,CLR,,0.00,WeatherDisplay:10.37,2013-03-01 07:21:00,
2013-03-01 02:25:00,29.4,22.1,29.91,NNW,338,0.0,0.0,74,0.00,CLR,CLR,0.02,WeatherDisplay:10.37,2013-03-01 07:25:00,
2013-03-01 02:26:00,30.5,24.8,29.85,NW,323,3.5,3.5,79,0.00,CLR,,0.00,WeatherDisplay:10.37,2013-03-01 07:26:00,
2013-03-01 02:30:00,29.5,22.2,29.91,NNW,338,0.0,0.0,74,0.00,CLR,CLR,0.02,WeatherDisplay:10.37,2013-03-01 07:30:00,
2013-03-01 02:31:00,30.6,24.9,29.84,NNW,339,5.0,5.0,79,0.00,CLR,,0.00,WeatherDisplay:10.37,2013-03-01 07:31:00,
2013-03-01 02:36:00,30.5,24.8,29.84,NNE,17,4.6,4.6,79,0.00,CLR,,0.00,WeatherDisplay:10.37,2013-03-01 07:36:00,
2013-03-01 02:41:00,30.5,24.5,29.84,NNW,344,4.0,4.0,78,0.00,CLR,,0.00,WeatherDisplay:10.37,2013-03-01 07:41:00,
2013-03-01 02:46:00,30.5,24.5,29.84,NNW,329,3.0,3.0,78,0.00,CLR,,0.00,WeatherDisplay:10.37,2013-03-01 07:46:00,
2013-03-01 02:51:00,30.5,24.5,29.84,NNW,335,6.0,6.0,78,0.00,CLR,,0.00,WeatherDisplay:10.37,2013-03-01 07:51:00,
2013-03-01 02:56:00,30.5,24.5,29.84,North,351,4.0,4.0,78,0.00,CLR,,0.00,WeatherDisplay:10.37,2013-03-01 07:56:00,
2013-03-01 03:01:00,30.5,24.5,29.84,NNW,340,5.0,5.0,78,0.00,CLR,,0.00,WeatherDisplay:10.37,2013-03-01 08:01:00,
2013-03-01 03:06:00,30.5,24.5,29.84,North,355,5.8,5.8,78,0.00,CLR,,0.00,WeatherDisplay:10.37,2013-03-01 08:06:00,
2013-03-01 03:11:00,30.4,24.4,29.84,NNW,348,4.0,4.0,78,0.00,CLR,,0.00,WeatherDisplay:10.37,2013-03-01 08:11:00,
2013-03-01 03:16:00,30.4,24.4,29.84,NNW,346,5.8,5.8,78,0.00,CLR,,0.00,WeatherDisplay:10.37,2013-03-01 08:16:00,
2013-03-01 03:21:00,30.4,24.4,29.84,NNW,327,4.6,4.6,78,0.00,CLR,,0.00,WeatherDisplay:10.37,2013-03-01 08:21:00,
2013-03-01 03:26:00,30.3,24.3,29.84,NNW,338,3.5,3.5,78,0.00,CLR,,0.00,WeatherDisplay:10.37,2013-03-01 08:26:00,
2013-03-01 03:31:00,30.3,24.6,29.85,NNW,338,3.0,3.0,79,0.00,CLR,,0.00,WeatherDisplay:10.37,2013-03-01 08:31:00,
2013-03-01 03:36:00,30.3,24.6,29.84,NW,317,3.5,3.5,79,0.00,CLR,,0.00,WeatherDisplay:10.37,2013-03-01 08:36:00,
2013-03-01 03:41:00,30.3,24.6,29.84,NNW,345,4.0,4.0,79,0.00,CLR,,0.00,WeatherDisplay:10.37,2013-03-01 08:41:00,
2013-03-01 03:46:00,30.2,24.5,29.84,NNW,341,5.0,5.0,79,0.00,CLR,,0.00,WeatherDisplay:10.37,2013-03-01 08:46:00,
2013-03-01 03:51:00,30.2,24.5,29.85,North,5,6.0,6.0,79,0.00,CLR,,0.00,WeatherDisplay:10.37,2013-03-01 08:51:00,
2013-03-01 03:56:00,30.2,24.5,29.85,NNW,339,4.0,4.0,79,0.00,CLR,,0.00,WeatherDisplay:10.37,2013-03-01 08:56:00,
2013-03-01 04:01:00,30.2,24.5,29.85,NNW,338,3.0,3.0,79,0.00,CLR,,0.00,WeatherDisplay:10.37,2013-03-01 09:01:00,
2013-03-01 04:06:00,30.2,24.5,29.84,NNW,336,3.0,3.0,79,0.00,CLR,,0.00,WeatherDisplay:10.37,2013-03-01 09:06:00,
2013-03-01 04:11:00,30.2,24.5,29.85,NNE,15,4.0,4.0,79,0.00,CLR,,0.00,WeatherDisplay:10.37,2013-03-01 09:11:00,
2013-03-01 04:16:00,30.2,24.5,29.84,North,350,7.0,7.0,79,0.00,CLR,,0.00,WeatherDisplay:10.37,2013-03-01 09:16:00,
2013-03-01 04:21:00,30.2,24.5,29.85,NNE,22,5.8,5.8,79,0.00,CLR,,0.00,WeatherDisplay:10.37,2013-03-01 09:21:00,
2013-03-01 04:26:00,30.2,24.5,29.85,NNE,24,4.0,4.0,79,0.00,CLR,,0.00,WeatherDisplay:10.37,2013-03-01 09:26:00,
2013-03-01 04:31:00,30.1,24.1,29.84,North,11,9.2,9.2,78,0.00,CLR,,0.00,WeatherDisplay:10.37,2013-03-01 09:31:00,
2013-03-01 04:36:00,30.1,24.1,29.85,NNE,14,5.0,5.0,78,0.00,CLR,,0.00,WeatherDisplay:10.37,2013-03-01 09:36:00,
2013-03-01 04:41:00,30.1,24.1,29.85,NNE,26,8.0,8.0,78,0.00,CLR,,0.00,WeatherDisplay:10.37,2013-03-01 09:41:00,
2013-03-01 04:46:00,30.0,24.0,29.85,NNW,342,3.5,3.5,78,0.00,CLR,,0.00,WeatherDisplay:10.37,2013-03-01 09:46:00,
2013-03-01 04:51:00,29.9,24.2,29.85,North,349,6.9,6.9,79,0.00,CLR,,0.00,WeatherDisplay:10.37,2013-03-01 09:51:00,
2013-03-01 04:56:00,29.9,24.2,29.85,North,360,11.0,11.0,79,0.00,CLR,,0.00,WeatherDisplay:10.37,2013-03-01 09:56:00,
2013-03-01 05:01:00,29.9,23.9,29.85,North,351,12.0,12.0,78,0.00,CLR,,0.00,WeatherDisplay:10.37,2013-03-01 10:01:00,
2013-03-01 05:06:00,29.8,23.8,29.85,NNW,327,12.0,12.0,78,0.00,CLR,,0.00,WeatherDisplay:10.37,2013-03-01 10:06:00,
2013-03-01 05:11:00,29.8,23.8,29.85,North,10,7.0,7.0,78,0.00,CLR,,0.00,WeatherDisplay:10.37,2013-03-01 10:11:00,
2013-03-01 05:16:00,29.8,23.8,29.85,ENE,57,8.0,8.0,78,0.00,CLR,,0.00,WeatherDisplay:10.37,2013-03-01 10:16:00,
2013-03-01 05:21:00,29.7,23.7,29.85,North,9,6.0,6.0,78,0.00,CLR,,0.00,WeatherDisplay:10.37,2013-03-01 10:21:00,
2013-03-01 05:26:00,29.7,23.7,29.85,North,351,11.5,11.5,78,0.00,CLR,,0.00,WeatherDisplay:10.37,2013-03-01 10:26:00,
2013-03-01 05:31:00,29.6,23.6,29.85,North,360,9.2,9.2,78,0.00,CLR,,0.00,WeatherDisplay:10.37,2013-03-01 10:31:00,
2013-03-01 05:36:00,29.6,23.6,29.85,North,360,6.9,6.9,78,0.00,CLR,,0.00,WeatherDisplay:10.37,2013-03-01 10:36:00,
2013-03-01 05:41:00,29.5,23.5,29.85,North,355,4.0,4.0,78,0.00,CLR,,0.00,WeatherDisplay:10.37,2013-03-01 10:41:00,
2013-03-01 05:46:00,29.5,23.5,29.85,NNW,345,6.9,6.9,78,0.00,CLR,,0.00,WeatherDisplay:10.37,2013-03-01 10:46:00,
2013-03-01 05:51:00,29.4,23.4,29.85,North,9,6.9,6.9,78,0.00,CLR,,0.00,WeatherDisplay:10.37,2013-03-01 10:51:00,
2013-03-01 05:56:00,29.4,23.4,29.86,North,5,4.0,4.0,78,0.00,CLR,,0.00,WeatherDisplay:10.37,2013-03-01 10:56:00,
2013-03-01 06:01:00,29.4,23.4,29.86,NNW,340,3.0,3.0,78,0.00,CLR,,0.00,WeatherDisplay:10.37,2013-03-01 11:01:00,
2013-03-01 06:06:00,29.4,23.4,29.86,North,11,3.5,3.5,78,0.00,CLR,,0.00,WeatherDisplay:10.37,2013-03-01 11:06:00,
2013-03-01 06:11:00,29.3,23.3,29.86,NNW,328,5.0,5.0,78,0.00,CLR,,0.00,WeatherDisplay:10.37,2013-03-01 11:11:00,
2013-03-01 06:16:00,29.3,23.3,29.86,North,351,5.0,5.0,78,0.00,CLR,,0.00,WeatherDisplay:10.37,2013-03-01 11:16:00,
2013-03-01 06:21:00,29.3,23.3,29.86,NNW,339,3.0,3.0,78,0.00,CLR,,0.00,WeatherDisplay:10.37,2013-03-01 11:21:00,
2013-03-01 06:26:00,29.2,23.5,29.86,North,360,4.0,4.0,79,0.00,CLR,,0.00,WeatherDisplay:10.37,2013-03-01 11:26:00,
2013-03-01 06:31:00,29.2,23.5,29.86,NNW,342,4.6,4.6,79,0.00,CLR,,0.00,WeatherDisplay:10.37,2013-03-01 11:31:00,
2013-03-01 06:36:00,29.2,23.5,29.86,NNW,340,5.0,5.0,79,0.00,CLR,,0.00,WeatherDisplay:10.37,2013-03-01 11:36:00,
2013-03-01 06:41:00,29.1,23.4,29.87,North,5,3.5,3.5,79,0.00,CLR,,0.00,WeatherDisplay:10.37,2013-03-01 11:41:00,
2013-03-01 06:46:00,29.1,23.4,29.86,North,5,3.5,3.5,79,0.00,CLR,,0.00,WeatherDisplay:10.37,2013-03-01 11:46:00,
2013-03-01 06:51:00,29.1,23.4,29.86,North,5,8.1,8.1,79,0.00,CLR,,0.00,WeatherDisplay:10.37,2013-03-01 11:51:00,
2013-03-01 06:56:00,29.1,23.4,29.87,NNE,15,3.5,3.5,79,0.00,CLR,,0.00,WeatherDisplay:10.37,2013-03-01 11:56:00,
2013-03-01 07:01:00,29.1,23.4,29.87,NW,318,3.0,3.0,79,0.00,CLR,,0.00,WeatherDisplay:10.37,2013-03-01 12:01:00,
2013-03-01 07:06:00,29.0,23.3,29.87,NW,319,5.0,5.0,79,0.00,CLR,,0.00,WeatherDisplay:10.37,2013-03-01 12:06:00,
2013-03-01 07:11:00,29.0,23.3,29.87,NNW,329,4.0,4.0,79,0.00,CLR,,0.00,WeatherDisplay:10.37,2013-03-01 12:11:00,
2013-03-01 07:16:00,29.0,23.3,29.87,NNW,333,3.5,3.5,79,0.00,CLR,,0.00,WeatherDisplay:10.37,2013-03-01 12:16:00,
2013-03-01 07:21:00,29.0,23.3,29.88,NNW,339,2.3,2.3,79,0.00,CLR,,0.00,WeatherDisplay:10.37,2013-03-01 12:21:00,
2013-03-01 07:26:00,29.0,23.3,29.88,NNW,338,2.3,2.3,79,0.00,CLR,,0.00,WeatherDisplay:10.37,2013-03-01 12:26:00,
2013-03-01 07:31:00,29.1,23.4,29.88,NNW,338,2.3,2.3,79,0.00,CLR,,0.00,WeatherDisplay:10.37,2013-03-01 12:31:00,
2013-03-01 07:36:00,29.0,23.3,29.88,NNW,346,3.5,3.5,79,0.00,CLR,,0.00,WeatherDisplay:10.37,2013-03-01 12:36:00,
2013-03-01 07:41:00,28.9,23.2,29.89,North,355,2.3,2.3,79,0.00,CLR,,0.00,WeatherDisplay:10.37,2013-03-01 12:41:00,
2013-03-01 07:46:00,28.9,23.2,29.89,NNE,26,4.6,4.6,79,0.00,CLR,,0.00,WeatherDisplay:10.37,2013-03-01 12:46:00,
2013-03-01 07:51:00,28.9,23.2,29.89,NNE,26,5.8,5.8,79,0.00,CLR,,0.00,WeatherDisplay:10.37,2013-03-01 12:51:00,
2013-03-01 07:56:00,29.0,23.3,29.89,NNE,17,3.5,3.5,79,0.00,CLR,,0.00,WeatherDisplay:10.37,2013-03-01 12:56:00,
2013-03-01 08:01:00,29.1,23.4,29.90,NNE,14,1.0,0.0,79,0.00,CLR,,0.00,WeatherDisplay:10.37,2013-03-01 13:01:00,
2013-03-01 08:06:00,29.1,23.4,29.90,NNE,14,3.5,3.5,79,0.00,CLR,,0.00,WeatherDisplay:10.37,2013-03-01 13:06:00,
2013-03-01 08:11:00,29.1,23.4,29.90,NNE,14,1.2,0.0,79,0.00,CLR,,0.00,WeatherDisplay:10.37,2013-03-01 13:11:00,
2013-03-01 08:16:00,29.1,23.4,29.90,North,355,1.2,0.0,79,0.00,CLR,,0.00,WeatherDisplay:10.37,2013-03-01 13:16:00,
2013-03-01 08:21:00,29.1,23.4,29.91,NW,307,3.5,3.5,79,0.00,CLR,,0.00,WeatherDisplay:10.37,2013-03-01 13:21:00,
2013-03-01 08:26:00,28.9,23.2,29.91,North,350,2.3,2.3,79,0.00,CLR,,0.00,WeatherDisplay:10.37,2013-03-01 13:26:00,
2013-03-01 08:31:00,28.9,23.5,29.91,NNW,327,3.5,3.5,80,0.00,CLR,,0.00,WeatherDisplay:10.37,2013-03-01 13:31:00,
2013-03-01 08:36:00,28.8,23.4,29.91,NNW,344,4.0,4.0,80,0.00,CLR,,0.00,WeatherDisplay:10.37,2013-03-01 13:36:00,
2013-03-01 08:41:00,28.8,23.4,29.91,NNW,348,3.5,3.5,80,0.00,CLR,,0.00,WeatherDisplay:10.37,2013-03-01 13:41:00,
2013-03-01 08:46:00,28.8,23.7,29.91,NNE,13,4.0,4.0,81,0.00,CLR,,0.00,WeatherDisplay:10.37,2013-03-01 13:46:00,
2013-03-01 08:51:00,28.8,23.7,29.91,North,9,3.5,3.5,81,0.00,CLR,,0.00,WeatherDisplay:10.37,2013-03-01 13:51:00,
2013-03-01 08:56:00,28.8,23.7,29.91,North,5,4.0,4.0,81,0.00,CLR,,0.00,WeatherDisplay:10.37,2013-03-01 13:56:00,
2013-03-01 09:01:00,28.8,23.7,29.91,North,9,5.0,5.0,81,0.00,CLR,,0.00,WeatherDisplay:10.37,2013-03-01 14:01:00,
2013-03-01 09:06:00,28.8,23.7,29.91,North,355,3.5,3.5,81,0.00,CLR,,0.00,WeatherDisplay:10.37,2013-03-01 14:06:00,
2013-03-01 09:11:00,28.8,24.0,29.91,North,11,6.0,6.0,82,0.00,CLR,,0.00,WeatherDisplay:10.37,2013-03-01 14:11:00,
2013-03-01 09:16:00,28.8,24.0,29.91,North,9,4.0,4.0,82,0.00,CLR,,0.00,WeatherDisplay:10.37,2013-03-01 14:16:00,
2013-03-01 09:21:00,28.8,24.0,29.91,NNW,345,6.0,6.0,82,0.00,CLR,,0.00,WeatherDisplay:10.37,2013-03-01 14:21:00,
2013-03-01 09:26:00,28.7,23.9,29.91,North,355,4.6,4.6,82,0.00,CLR,,0.00,WeatherDisplay:10.37,2013-03-01 14:26:00,
2013-03-01 09:31:00,28.7,23.9,29.91,North,5,6.0,6.0,82,0.00,CLR,,0.00,WeatherDisplay:10.37,2013-03-01 14:31:00,
2013-03-01 09:36:00,28.8,24.0,29.91,North,350,3.5,3.5,82,0.00,CLR,,0.00,WeatherDisplay:10.37,2013-03-01 14:36:00,
2013-03-01 09:41:00,28.9,24.1,29.91,NNE,25,7.0,7.0,82,0.00,CLR,,0.00,WeatherDisplay:10.37,2013-03-01 14:41:00,
2013-03-01 09:46:00,29.0,24.2,29.91,North,360,2.3,2.3,82,0.00,CLR,,0.00,WeatherDisplay:10.37,2013-03-01 14:46:00,
2013-03-01 09:51:00,29.1,24.3,29.91,North,10,3.5,3.5,82,0.00,CLR,,0.00,WeatherDisplay:10.37,2013-03-01 14:51:00,
2013-03-01 09:56:00,29.2,24.4,29.91,North,355,5.8,5.8,82,0.00,CLR,,0.00,WeatherDisplay:10.37,2013-03-01 14:56:00,
2013-03-01 10:01:00,29.3,24.2,29.91,NNW,335,4.0,4.0,81,0.00,CLR,,0.00,WeatherDisplay:10.37,2013-03-01 15:01:00,
2013-03-01 10:06:00,29.4,24.3,29.91,North,349,4.0,4.0,81,0.00,CLR,,0.00,WeatherDisplay:10.37,2013-03-01 15:06:00,
2013-03-01 10:11:00,29.3,24.2,29.91,North,350,5.8,5.8,81,0.00,CLR,,0.00,WeatherDisplay:10.37,2013-03-01 15:11:00,
2013-03-01 10:16:00,29.3,24.2,29.91,North,355,4.0,4.0,81,0.00,CLR,,0.00,WeatherDisplay:10.37,2013-03-01 15:16:00,
2013-03-01 10:21:00,29.5,24.4,29.91,NW,310,1.2,1.2,81,0.00,CLR,,0.00,WeatherDisplay:10.37,2013-03-01 15:21:00,
2013-03-01 10:26:00,29.8,24.7,29.91,North,350,3.0,3.0,81,0.00,CLR,,0.00,WeatherDisplay:10.37,2013-03-01 15:26:00,
2013-03-01 10:31:00,29.7,24.3,29.91,North,355,4.6,4.6,80,0.00,CLR,,0.00,WeatherDisplay:10.37,2013-03-01 15:31:00,
2013-03-01 10:36:00,29.8,24.4,29.91,NNW,337,3.5,3.5,80,0.00,CLR,,0.00,WeatherDisplay:10.37,2013-03-01 15:36:00,
2013-03-01 10:41:00,30.1,24.4,29.91,NNW,346,6.9,6.9,79,0.00,CLR,,0.00,WeatherDisplay:10.37,2013-03-01 15:41:00,
2013-03-01 10:46:00,30.1,24.4,29.92,North,355,0.0,0.0,79,0.00,CLR,,0.00,WeatherDisplay:10.37,2013-03-01 15:46:00,
2013-03-01 10:51:00,29.8,23.8,29.92,NNW,348,0.0,0.0,78,0.01,RA,,0.01,WeatherDisplay:10.37,2013-03-01 15:51:00,
2013-03-01 10:55:00,25.9,19.4,29.98,NNE,14,3.0,6.0,76,0.00,RA,RA,0.02,WeatherDisplay:10.37,2013-03-01 15:55:00,
2013-03-01 10:56:00,29.7,23.7,29.92,North,360,0.0,0.0,78,0.01,RA,,0.01,WeatherDisplay:10.37,2013-03-01 15:56:00,
2013-03-01 11:00:00,25.9,19.4,29.98,NNE,12,6.0,8.0,76,0.00,RA,RA,0.02,WeatherDisplay:10.37,2013-03-01 16:00:00,
2013-03-01 11:01:00,29.8,23.5,29.92,North,355,0.0,0.0,77,0.01,,,0.01,WeatherDisplay:10.37,2013-03-01 16:01:00,
2013-03-01 11:05:00,25.9,19.1,29.98,NNE,13,3.0,11.0,75,0.00,CLR,CLR,0.02,WeatherDisplay:10.37,2013-03-01 16:05:00,
2013-03-01 11:06:00,30.1,23.8,29.92,North,5,0.0,0.0,77,0.01,CLR,,0.01,WeatherDisplay:10.37,2013-03-01 16:06:00,
2013-03-01 11:10:00,26.0,19.2,29.98,NNE,17,5.0,7.0,75,0.00,CLR,CLR,0.02,WeatherDisplay:10.37,2013-03-01 16:10:00,
2013-03-01 11:11:00,30.5,24.1,29.92,NNW,343,0.0,0.0,77,0.01,CLR,,0.01,WeatherDisplay:10.37,2013-03-01 16:11:00,
2013-03-01 11:15:00,26.0,19.2,29.98,NNE,19,2.0,6.0,75,0.00,CLR,CLR,0.02,WeatherDisplay:10.37,2013-03-01 16:15:00,
2013-03-01 11:20:00,26.0,19.2,29.98,NNE,20,3.0,7.0,75,0.00,CLR,CLR,0.02,WeatherDisplay:10.37,2013-03-01 16:20:00,
2013-03-01 11:25:00,25.9,18.7,29.98,NNE,22,3.0,5.0,74,0.00,CLR,CLR,0.02,WeatherDisplay:10.37,2013-03-01 16:25:00,
2013-03-01 11:30:00,26.0,18.8,29.98,NNE,22,3.0,5.0,74,0.00,CLR,CLR,0.02,WeatherDisplay:10.37,2013-03-01 16:30:00,
2013-03-01 11:35:00,25.9,19.1,29.98,NNE,22,3.0,8.0,75,0.00,CLR,CLR,0.02,WeatherDisplay:10.37,2013-03-01 16:35:00,
2013-03-01 11:40:00,25.9,19.1,29.98,NNE,22,5.0,6.0,75,0.00,CLR,CLR,0.02,WeatherDisplay:10.37,2013-03-01 16:40:00,
2013-03-01 11:45:00,25.7,18.9,29.97,NNE,22,5.0,11.0,75,0.00,CLR,CLR,0.02,WeatherDisplay:10.37,2013-03-01 16:45:00,
2013-03-01 11:50:00,25.6,18.8,29.98,NNE,20,5.0,10.0,75,0.00,CLR,CLR,0.02,WeatherDisplay:10.37,2013-03-01 16:50:00,
2013-03-01 11:55:00,25.4,18.6,29.98,NNE,16,1.0,7.0,75,0.00,CLR,CLR,0.02,WeatherDisplay:10.37,2013-03-01 16:55:00,
2013-03-01 12:00:00,25.3,18.8,29.98,NNE,17,2.0,6.0,76,0.00,CLR,CLR,0.02,WeatherDisplay:10.37,2013-03-01 17:00:00,
2013-03-01 12:05:00,25.3,18.8,29.98,NNE,22,3.0,5.0,76,0.00,RA,RA,0.00,WeatherDisplay:10.37,2013-03-01 17:05:00,
2013-03-01 12:10:00,25.2,18.7,29.97,NNE,19,3.0,6.0,76,0.00,RA,RA,0.00,WeatherDisplay:10.37,2013-03-01 17:10:00,
2013-03-01 12:15:00,25.2,18.7,29.97,NNE,12,3.0,6.0,76,0.00,CLR,CLR,0.00,WeatherDisplay:10.37,2013-03-01 17:15:00,
2013-03-01 12:20:00,25.2,18.7,29.97,NNE,14,3.0,4.0,76,0.00,CLR,CLR,0.00,WeatherDisplay:10.37,2013-03-01 17:20:00,
2013-03-01 12:25:00,25.2,18.7,29.97,NNE,25,1.0,3.0,76,0.00,CLR,CLR,0.00,WeatherDisplay:10.37,2013-03-01 17:25:00,
2013-03-01 12:30:00,25.2,18.7,29.97,NNE,26,2.0,5.0,76,0.00,CLR,CLR,0.00,WeatherDisplay:10.37,2013-03-01 17:30:00,
2013-03-01 12:35:00,25.2,18.7,29.97,NNE,22,2.0,4.0,76,0.00,CLR,CLR,0.00,WeatherDisplay:10.37,2013-03-01 17:35:00,
2013-03-01 12:40:00,25.2,18.7,29.97,NNE,14,3.0,7.0,76,0.00,CLR,CLR,0.00,WeatherDisplay:10.37,2013-03-01 17:40:00,
2013-03-01 12:45:00,25.1,18.6,29.97,NNE,13,2.0,6.0,76,0.00,CLR,CLR,0.00,WeatherDisplay:10.37,2013-03-01 17:45:00,
2013-03-01 12:50:00,25.1,18.6,29.97,North,11,3.0,5.0,76,0.00,CLR,CLR,0.00,WeatherDisplay:10.37,2013-03-01 17:50:00,
2013-03-01 12:55:00,25.0,18.5,29.97,North,2,2.0,4.0,76,0.00,CLR,CLR,0.00,WeatherDisplay:10.37,2013-03-01 17:55:00,
2013-03-01 13:00:00,25.0,18.5,29.97,North,0,2.0,3.0,76,0.00,CLR,CLR,0.00,WeatherDisplay:10.37,2013-03-01 18:00:00,
2013-03-01 13:05:00,25.1,18.6,29.97,North,1,1.0,4.0,76,0.00,CLR,CLR,0.00,WeatherDisplay:10.37,2013-03-01 18:05:00,
2013-03-01 13:10:00,25.1,18.6,29.97,NNE,15,6.0,8.0,76,0.00,CLR,CLR,0.00,WeatherDisplay:10.37,2013-03-01 18:10:00,
2013-03-01 13:15:00,25.0,18.5,29.97,NNE,20,3.0,8.0,76,0.00,CLR,CLR,0.00,WeatherDisplay:10.37,2013-03-01 18:15:00,
2013-03-01 13:20:00,24.8,18.3,29.97,NNE,20,3.0,6.0,76,0.00,CLR,CLR,0.00,WeatherDisplay:10.37,2013-03-01 18:20:00,
2013-03-01 13:25:00,24.8,18.3,29.97,NNE,22,2.0,4.0,76,0.00,CLR,CLR,0.00,WeatherDisplay:10.37,2013-03-01 18:25:00,
2013-03-01 13:30:00,24.7,18.2,29.97,NNE,17,3.0,8.0,76,0.00,CLR,CLR,0.00,WeatherDisplay:10.37,2013-03-01 18:30:00,
2013-03-01 13:35:00,24.7,18.2,29.97,NNE,19,5.0,6.0,76,0.00,CLR,CLR,0.00,WeatherDisplay:10.37,2013-03-01 18:35:00,
2013-03-01 13:40:00,24.7,18.2,29.97,North,10,2.0,4.0,76,0.00,CLR,CLR,0.00,WeatherDisplay:10.37,2013-03-01 18:40:00,
2013-03-01 13:45:00,24.7,18.2,29.98,NNW,346,1.0,3.0,76,0.00,CLR,CLR,0.00,WeatherDisplay:10.37,2013-03-01 18:45:00,
2013-03-01 13:50:00,24.7,18.2,29.97,NNW,338,1.0,2.0,76,0.00,CLR,CLR,0.00,WeatherDisplay:10.37,2013-03-01 18:50:00,
2013-03-01 13:55:00,24.8,18.0,29.97,NNW,342,2.0,3.0,75,0.00,CLR,CLR,0.00,WeatherDisplay:10.37,2013-03-01 18:55:00,
2013-03-01 14:00:00,24.9,18.1,29.98,NNW,343,1.0,3.0,75,0.00,CLR,CLR,0.00,WeatherDisplay:10.37,2013-03-01 19:00:00,
2013-03-01 14:05:00,24.9,18.1,29.98,North,351,1.0,3.0,75,0.00,CLR,CLR,0.00,WeatherDisplay:10.37,2013-03-01 19:05:00,
2013-03-01 14:10:00,24.9,18.1,29.98,North,0,0.0,3.0,75,0.00,CLR,CLR,0.00,WeatherDisplay:10.37,2013-03-01 19:10:00,
2013-03-01 14:35:00,29.6,22.3,29.92,NNE,14,4.0,0.0,74,0.00,CLR,,0.02,WeatherDisplay:10.37,2013-03-01 19:35:00,
2013-03-01 14:40:00,29.5,21.9,29.92,North,5,0.0,0.0,73,0.00,CLR,,0.02,WeatherDisplay:10.37,2013-03-01 19:40:00,
2013-03-01 14:46:00,29.6,22.0,29.92,North,360,0.0,0.0,73,0.00,CLR,,0.02,WeatherDisplay:10.37,2013-03-01 19:46:00,
2013-03-01 14:51:00,29.5,22.2,29.92,North,355,0.0,0.0,74,0.00,CLR,,0.02,WeatherDisplay:10.37,2013-03-01 19:51:00,
2013-03-01 14:56:00,29.4,22.1,29.92,NE,40,0.0,0.0,74,0.00,CLR,,0.02,WeatherDisplay:10.37,2013-03-01 19:56:00,
2013-03-01 15:01:00,29.2,21.9,29.92,NNE,14,0.0,0.0,74,0.00,CLR,,0.02,WeatherDisplay:10.37,2013-03-01 20:01:00,
2013-03-01 15:06:00,29.0,21.7,29.92,North,5,0.0,0.0,74,0.00,CLR,,0.02,WeatherDisplay:10.37,2013-03-01 20:06:00,
2013-03-01 15:11:00,28.9,21.7,29.92,NNW,346,0.0,0.0,74,0.00,CLR,,0.02,WeatherDisplay:10.37,2013-03-01 20:11:00,
2013-03-01 15:16:00,28.9,21.7,29.92,North,5,0.0,0.0,74,0.00,CLR,,0.02,WeatherDisplay:10.37,2013-03-01 20:16:00,
2013-03-01 15:21:00,29.0,21.7,29.92,NNW,348,0.0,0.0,74,0.00,CLR,,0.02,WeatherDisplay:10.37,2013-03-01 20:21:00,
2013-03-01 15:26:00,28.9,21.7,29.92,NNW,340,0.0,0.0,74,0.00,CLR,,0.02,WeatherDisplay:10.37,2013-03-01 20:26:00,
2013-03-01 15:31:00,28.9,21.7,29.92,North,350,0.0,0.0,74,0.00,CLR,,0.02,WeatherDisplay:10.37,2013-03-01 20:31:00,
2013-03-01 15:36:00,28.9,22.0,29.92,NNE,21,0.0,0.0,75,0.00,CLR,,0.02,WeatherDisplay:10.37,2013-03-01 20:36:00,
2013-03-01 15:41:00,28.9,22.0,29.92,North,355,0.0,0.0,75,0.00,CLR,,0.02,WeatherDisplay:10.37,2013-03-01 20:41:00,
2013-03-01 15:46:00,28.9,22.0,29.92,NNW,346,0.0,0.0,75,0.00,CLR,,0.02,WeatherDisplay:10.37,2013-03-01 20:46:00,
2013-03-01 15:51:00,29.3,22.4,29.92,North,355,0.0,0.0,75,0.00,CLR,,0.02,WeatherDisplay:10.37,2013-03-01 20:51:00,
2013-03-01 15:56:00,29.2,21.9,29.92,NNE,28,0.0,0.0,74,0.00,CLR,,0.02,WeatherDisplay:10.37,2013-03-01 20:56:00,
2013-03-01 16:01:00,29.2,21.9,29.92,NNE,15,0.0,0.0,74,0.00,CLR,,0.02,WeatherDisplay:10.37,2013-03-01 21:01:00,
2013-03-01 16:06:00,29.1,21.8,29.92,NE,46,5.8,5.8,74,0.00,CLR,,0.02,WeatherDisplay:10.37,2013-03-01 21:06:00,
2013-03-01 16:11:00,29.2,22.3,29.92,North,5,5.0,5.0,75,0.00,CLR,,0.02,WeatherDisplay:10.37,2013-03-01 21:11:00,
2013-03-01 16:16:00,29.1,21.8,29.92,NNE,15,11.5,11.5,74,0.00,CLR,,0.02,WeatherDisplay:10.37,2013-03-01 21:16:00,
2013-03-01 16:21:00,29.1,21.8,29.93,NNE,22,8.0,8.0,74,0.00,CLR,,0.02,WeatherDisplay:10.37,2013-03-01 21:21:00,
2013-03-01 16:26:00,29.0,21.7,29.93,NE,52,9.2,9.2,74,0.00,CLR,,0.02,WeatherDisplay:10.37,2013-03-01 21:26:00,
2013-03-01 16:31:00,28.9,21.7,29.93,NNE,14,9.2,9.2,74,0.00,CLR,,0.02,WeatherDisplay:10.37,2013-03-01 21:31:00,
2013-03-01 16:36:00,28.8,21.6,29.93,NNE,13,11.5,11.5,74,0.00,CLR,,0.02,WeatherDisplay:10.37,2013-03-01 21:36:00,
2013-03-01 16:41:00,28.8,21.6,29.93,North,355,7.0,7.0,74,0.00,CLR,,0.02,WeatherDisplay:10.37,2013-03-01 21:41:00,
2013-03-01 16:46:00,28.8,21.6,29.93,North,5,6.0,6.0,74,0.00,CLR,,0.02,WeatherDisplay:10.37,2013-03-01 21:46:00,
2013-03-01 16:51:00,28.8,21.6,29.93,NNE,29,6.0,6.0,74,0.00,CLR,,0.02,WeatherDisplay:10.37,2013-03-01 21:51:00,
2013-03-01 16:56:00,28.8,21.2,29.93,NNE,18,8.1,8.1,73,0.00,CLR,,0.02,WeatherDisplay:10.37,2013-03-01 21:56:00,
2013-03-01 17:01:00,28.7,21.1,29.93,NNE,15,9.2,9.2,73,0.00,CLR,,0.02,WeatherDisplay:10.37,2013-03-01 22:01:00,
2013-03-01 17:06:00,28.8,21.2,29.93,North,11,6.0,6.0,73,0.00,CLR,,0.02,WeatherDisplay:10.37,2013-03-01 22:06:00,
2013-03-01 17:11:00,28.6,21.0,29.93,NNE,22,12.0,12.0,73,0.00,CLR,,0.02,WeatherDisplay:10.37,2013-03-01 22:11:00,
2013-03-01 17:16:00,28.5,21.3,29.93,North,9,7.0,7.0,74,0.00,CLR,,0.02,WeatherDisplay:10.37,2013-03-01 22:16:00,
2013-03-01 17:21:00,28.5,21.3,29.93,North,355,9.2,9.2,74,0.00,CLR,,0.02,WeatherDisplay:10.37,2013-03-01 22:21:00,
2013-03-01 17:26:00,28.4,21.2,29.93,NNW,342,8.1,8.1,74,0.00,CLR,,0.02,WeatherDisplay:10.37,2013-03-01 22:26:00,
2013-03-01 17:31:00,28.4,21.2,29.94,North,360,8.0,8.0,74,0.00,CLR,,0.02,WeatherDisplay:10.37,2013-03-01 22:31:00,
2013-03-01 17:36:00,28.3,21.4,29.94,North,360,6.0,6.0,75,0.00,CLR,,0.02,WeatherDisplay:10.37,2013-03-01 22:36:00,
2013-03-01 17:41:00,28.1,21.2,29.94,North,9,8.1,8.1,75,0.00,CLR,,0.02,WeatherDisplay:10.37,2013-03-01 22:41:00,
2013-03-01 17:46:00,27.9,21.3,29.94,North,5,3.5,3.5,76,0.00,CLR,,0.02,WeatherDisplay:10.37,2013-03-01 22:46:00,
2013-03-01 17:51:00,27.8,21.2,29.94,North,11,8.1,8.1,76,0.00,CLR,,0.02,WeatherDisplay:10.37,2013-03-01 22:51:00,
2013-03-01 17:56:00,27.8,21.5,29.94,NNE,26,8.1,8.1,77,0.00,CLR,,0.02,WeatherDisplay:10.37,2013-03-01 22:56:00,
2013-03-01 18:01:00,27.7,21.4,29.94,North,355,4.0,4.0,77,0.00,CLR,,0.02,WeatherDisplay:10.37,2013-03-01 23:01:00,
2013-03-01 18:06:00,27.6,21.6,29.95,North,355,1.2,1.2,78,0.00,CLR,,0.02,WeatherDisplay:10.37,2013-03-01 23:06:00,
2013-03-01 18:11:00,27.7,21.7,29.95,NNE,17,3.5,3.5,78,0.00,CLR,,0.02,WeatherDisplay:10.37,2013-03-01 23:11:00,
2013-03-01 18:16:00,27.6,21.9,29.95,NNE,14,3.5,3.5,79,0.00,CLR,,0.02,WeatherDisplay:10.37,2013-03-01 23:16:00,
2013-03-01 18:21:00,27.5,21.8,29.95,North,350,4.0,4.0,79,0.00,CLR,,0.02,WeatherDisplay:10.37,2013-03-01 23:21:00,
2013-03-01 18:26:00,27.5,21.8,29.95,NNE,17,3.5,3.5,79,0.00,CLR,,0.02,WeatherDisplay:10.37,2013-03-01 23:26:00,
2013-03-01 18:31:00,27.4,21.7,29.95,North,355,5.0,5.0,79,0.00,CLR,,0.02,WeatherDisplay:10.37,2013-03-01 23:31:00,
2013-03-01 18:36:00,27.3,21.6,29.95,NNE,19,5.0,5.0,79,0.00,CLR,,0.02,WeatherDisplay:10.37,2013-03-01 23:36:00,
2013-03-01 18:41:00,27.3,21.9,29.95,NNE,15,4.0,4.0,80,0.00,CLR,,0.02,WeatherDisplay:10.37,2013-03-01 23:41:00,
2013-03-01 18:46:00,27.2,21.8,29.96,NNE,25,8.1,8.1,80,0.00,CLR,,0.02,WeatherDisplay:10.37,2013-03-01 23:46:00,
2013-03-01 18:51:00,27.1,21.7,29.96,NE,36,9.2,9.2,80,0.00,CLR,,0.02,WeatherDisplay:10.37,2013-03-01 23:51:00,
2013-03-01 18:56:00,27.1,21.7,29.96,NNE,28,5.0,5.0,80,0.00,CLR,,0.02,WeatherDisplay:10.37,2013-03-01 23:56:00,
2013-03-01 19:01:00,27.1,21.7,29.96,NNE,19,5.8,5.8,80,0.00,CLR,,0.02,WeatherDisplay:10.37,2013-03-02 00:01:00,
2013-03-01 19:06:00,27.1,21.5,29.96,NNE,22,5.0,5.0,79,0.00,CLR,,0.02,WeatherDisplay:10.37,2013-03-02 00:06:00,
2013-03-01 19:11:00,27.2,21.5,29.96,NNE,23,5.0,5.0,79,0.00,CLR,,0.02,WeatherDisplay:10.37,2013-03-02 00:11:00,
2013-03-01 19:16:00,27.2,21.5,29.96,NNE,22,4.0,4.0,79,0.00,CLR,,0.02,WeatherDisplay:10.37,2013-03-02 00:16:00,
2013-03-01 19:21:00,27.3,21.6,29.96,NE,43,6.0,6.0,79,0.00,CLR,,0.02,WeatherDisplay:10.37,2013-03-02 00:21:00,
2013-03-01 19:26:00,27.3,21.6,29.96,NNE,22,6.0,6.0,79,0.00,CLR,,0.02,WeatherDisplay:10.37,2013-03-02 00:26:00,
2013-03-01 19:31:00,27.4,21.7,29.96,NNE,33,4.0,4.0,79,0.00,CLR,,0.02,WeatherDisplay:10.37,2013-03-02 00:31:00,
2013-03-01 19:36:00,27.4,21.7,29.96,NNE,22,4.0,4.0,79,0.00,CLR,,0.02,WeatherDisplay:10.37,2013-03-02 00:36:00,
2013-03-01 19:41:00,27.4,21.7,29.96,NNE,33,4.0,4.0,79,0.00,CLR,,0.02,WeatherDisplay:10.37,2013-03-02 00:41:00,
2013-03-01 19:46:00,27.4,21.4,29.97,NNE,26,3.5,3.5,78,0.00,CLR,,0.02,WeatherDisplay:10.37,2013-03-02 00:46:00,
2013-03-01 19:51:00,27.4,21.4,29.97,NNE,24,5.0,5.0,78,0.00,CLR,,0.02,WeatherDisplay:10.37,2013-03-02 00:51:00,
2013-03-01 19:56:00,27.4,21.1,29.97,North,360,3.5,3.5,77,0.00,CLR,,0.02,WeatherDisplay:10.37,2013-03-02 00:56:00,
2013-03-01 20:01:00,27.4,21.1,29.97,NNE,18,4.6,4.6,77,0.00,CLR,,0.02,WeatherDisplay:10.37,2013-03-02 01:01:00,
2013-03-01 20:06:00,27.4,20.8,29.97,NNE,13,5.0,5.0,76,0.00,CLR,,0.02,WeatherDisplay:10.37,2013-03-02 01:06:00,
2013-03-01 20:11:00,27.4,20.8,29.97,NNE,13,4.0,4.0,76,0.00,CLR,,0.02,WeatherDisplay:10.37,2013-03-02 01:11:00,
2013-03-01 20:16:00,27.3,22.5,29.97,NNE,15,7.0,7.0,82,0.00,CLR,,0.02,WeatherDisplay:10.37,2013-03-02 01:16:00,
2013-03-01 20:21:00,27.3,20.4,29.97,North,5,3.5,3.5,75,0.00,CLR,,0.02,WeatherDisplay:10.37,2013-03-02 01:21:00,
2013-03-01 20:26:00,27.2,20.3,29.97,NNE,22,3.5,3.5,75,0.00,CLR,,0.02,WeatherDisplay:10.37,2013-03-02 01:26:00,
2013-03-01 20:31:00,27.2,20.6,29.97,NNE,29,7.0,7.0,76,0.00,CLR,,0.02,WeatherDisplay:10.37,2013-03-02 01:31:00,
2013-03-01 20:36:00,27.2,20.6,29.97,NNE,22,4.0,4.0,76,0.00,CLR,,0.02,WeatherDisplay:10.37,2013-03-02 01:36:00,
2013-03-01 20:41:00,27.2,20.6,29.97,NNE,30,6.0,6.0,76,0.00,CLR,,0.02,WeatherDisplay:10.37,2013-03-02 01:41:00,
2013-03-01 20:46:00,27.2,20.3,29.97,NNE,33,4.0,4.0,75,0.00,CLR,,0.02,WeatherDisplay:10.37,2013-03-02 01:46:00,
2013-03-01 20:51:00,27.2,20.6,29.97,NNE,13,5.0,5.0,76,0.00,CLR,,0.02,WeatherDisplay:10.37,2013-03-02 01:51:00,
2013-03-01 20:56:00,27.2,20.3,29.98,NNE,24,6.0,6.0,75,0.00,CLR,,0.02,WeatherDisplay:10.37,2013-03-02 01:56:00,
2013-03-01 21:01:00,27.2,20.3,29.98,NNE,18,4.6,4.6,75,0.00,CLR,,0.02,WeatherDisplay:10.37,2013-03-02 02:01:00,
2013-03-01 21:06:00,27.2,20.0,29.98,North,360,10.4,10.4,74,0.00,CLR,,0.02,WeatherDisplay:10.37,2013-03-02 02:06:00,
2013-03-01 21:11:00,27.1,19.9,29.98,NNE,16,5.0,5.0,74,0.00,CLR,,0.02,WeatherDisplay:10.37,2013-03-02 02:11:00,
2013-03-01 21:16:00,27.1,19.9,29.98,NNE,17,4.6,4.6,74,0.00,CLR,,0.02,WeatherDisplay:10.37,2013-03-02 02:16:00,
2013-03-01 21:21:00,27.1,19.9,29.98,North,10,3.5,3.5,74,0.00,CLR,,0.02,WeatherDisplay:10.37,2013-03-02 02:21:00,
2013-03-01 21:26:00,27.0,19.8,29.98,NNE,24,7.0,7.0,74,0.00,CLR,,0.02,WeatherDisplay:10.37,2013-03-02 02:26:00,
2013-03-01 21:31:00,27.0,19.8,29.98,NE,42,7.0,7.0,74,0.00,CLR,,0.02,WeatherDisplay:10.37,2013-03-02 02:31:00,
2013-03-01 21:36:00,26.9,19.7,29.98,NNE,27,6.0,6.0,74,0.00,CLR,,0.02,WeatherDisplay:10.37,2013-03-02 02:36:00,
2013-03-01 21:41:00,26.8,19.6,29.98,NNE,25,6.0,6.0,74,0.00,CLR,,0.02,WeatherDisplay:10.37,2013-03-02 02:41:00,
2013-03-01 21:46:00,26.7,19.8,29.98,NNE,27,6.0,6.0,75,0.00,CLR,,0.02,WeatherDisplay:10.37,2013-03-02 02:46:00,
2013-03-01 21:51:00,26.5,20.0,29.99,North,9,8.1,8.1,76,0.00,CLR,,0.02,WeatherDisplay:10.37,2013-03-02 02:51:00,
2013-03-01 21:56:00,26.3,19.8,29.98,NNE,32,6.0,6.0,76,0.00,CLR,,0.02,WeatherDisplay:10.37,2013-03-02 02:56:00,
2013-03-01 22:01:00,26.2,20.0,29.99,North,5,8.1,8.1,77,0.00,CLR,,0.02,WeatherDisplay:10.37,2013-03-02 03:01:00,
2013-03-01 22:06:00,26.1,19.9,29.99,NE,35,6.0,6.0,77,0.00,CLR,,0.02,WeatherDisplay:10.37,2013-03-02 03:06:00,
2013-03-01 22:11:00,26.1,19.9,29.99,NNE,23,5.0,5.0,77,0.00,CLR,,0.02,WeatherDisplay:10.37,2013-03-02 03:11:00,
2013-03-01 22:16:00,26.0,19.8,29.99,NNE,19,4.6,4.6,77,0.00,CLR,,0.02,WeatherDisplay:10.37,2013-03-02 03:16:00,
2013-03-01 22:21:00,26.0,20.1,29.98,NNE,29,6.0,6.0,78,0.00,CLR,,0.02,WeatherDisplay:10.37,2013-03-02 03:21:00,
2013-03-01 22:26:00,25.8,19.9,29.98,NNE,22,6.0,6.0,78,0.00,CLR,,0.02,WeatherDisplay:10.37,2013-03-02 03:26:00,
2013-03-01 22:31:00,25.8,19.9,29.98,NNE,23,6.0,6.0,78,0.00,CLR,,0.02,WeatherDisplay:10.37,2013-03-02 03:31:00,
2013-03-01 22:36:00,25.8,19.9,29.98,NNE,26,5.0,5.0,78,0.00,CLR,,0.02,WeatherDisplay:10.37,2013-03-02 03:36:00,
2013-03-01 22:41:00,25.8,19.9,29.98,NNE,24,5.0,5.0,78,0.00,CLR,,0.02,WeatherDisplay:10.37,2013-03-02 03:41:00,
2013-03-01 22:46:00,25.9,20.0,29.98,NNE,24,5.0,5.0,78,0.00,CLR,,0.02,WeatherDisplay:10.37,2013-03-02 03:46:00,